(75199) = 1999 VK176

Discovered at Socorro on 1999-11-04 by LINEAR.

Orbit

Orbit type: Main Belt

Note: WebGL enabled browser required.

epoch2024-03-31.0
epoch JD2460400.5
perihelion date2022-10-02.40221
perihelion JD2459854.90221
argument of perihelion (°)329.49949
ascending node (°)125.78340
inclination (°)4.76233
eccentricity0.1663755
perihelion distance (AU)2.0179578
Tisserand w.r.t. Jupiter3.5
ΔV w.r.t. Earth (km/sec)9.0
semimajor axis (AU)2.4207036
mean anomaly (°)142.77889
mean daily motion (°/day)0.26169260
aphelion distance (AU)2.823
period (years)3.77
P-vector [x]-0.09349478
P-vector [y]0.92940624
P-vector [z]0.35701928
Q-vector [x]-0.99333912
Q-vector [y]-0.11133453
Q-vector [z]0.02969865
absolute magnitude16.33
phase slope0.15
uncertainty0
referenceMPEC 2024-E179
observations used841
oppositions18
arc length (days)11040
first opposition used1993
last opposition used2023
residual rms (arc-secs)0.69
perturbers coarse indicatorM-v
perturbers precise indicator003Ek
first observation date used1993-02-26.0
last observation date used2023-05-20.0
computer nameMPCLINUX
JD of orbit computation2456966.814747
perihelion JD uncertainty (days)6.9570E-05
argument of perihelion uncertainty (°)5.7666E-05
ascending node uncertainty (°)5.4532E-05
inclination uncertainty (°)3.9417E-06
eccentricity uncertainty 3.2742E-08
perihelion distance uncertainty (AU)8.1219E-08
Minimum Orbit Intersection Distances (in AU)
for orbit epoch: 2460400.5, reference: E2024-DC7
Mercury1.71005
Venus1.30064
Earth1.03687
Mars0.41675
Jupiter2.34525
Saturn7.02102
Uranus16.1025
Neptune27.4208

Observations

853 total observations over interval: 1993 02 26.32889 – 2023 05 20.157405
These data are available for download (format description).

Date (UT) J2000 RA J2000 Dec Magn Location Ref
1993 02 26.32889 11 06 05.80 +11 08 00.2 19.1 V 691 – Steward Observatory, Kitt Peak-Spacewatch MPS 35554
1993 02 26.35675 11 06 04.22 +11 08 13.9   691 – Steward Observatory, Kitt Peak-Spacewatch MPS 35554
1993 02 26.38872 11 06 02.42 +11 08 29.9   691 – Steward Observatory, Kitt Peak-Spacewatch MPS 35554
1999 10 20.32367 04 12 10.78 +12 58 08.3 18.6   704 – Lincoln Laboratory ETS, New Mexico MPS 16634
1999 10 20.33894 04 12 10.53 +12 58 05.6 19.1   704 – Lincoln Laboratory ETS, New Mexico MPS 16634
1999 10 20.35421 04 12 10.19 +12 58 02.6 19.3   704 – Lincoln Laboratory ETS, New Mexico MPS 16634
1999 10 20.36959 04 12 09.93 +12 57 59.4 18.8   704 – Lincoln Laboratory ETS, New Mexico MPS 16634
1999 10 20.38490 04 12 09.66 +12 57 56.0 19.1   704 – Lincoln Laboratory ETS, New Mexico MPS 16634
1999 11 04.32970 04 04 26.65 +12 10 44.8 18.5   704 – Lincoln Laboratory ETS, New Mexico MPS 14028
1999 11 04.34581 04 04 25.88 +12 10 42.1 19.2   704 – Lincoln Laboratory ETS, New Mexico MPS 14028
1999 11 04.36198 04 04 25.14 +12 10 39.2 18.9   704 – Lincoln Laboratory ETS, New Mexico MPS 14028
1999 11 04.39414 04 04 23.49 +12 10 32.8 18.5   704 – Lincoln Laboratory ETS, New Mexico MPS 14028
1999 11 05.32963 04 03 41.32 +12 07 35.5 18.2   704 – Lincoln Laboratory ETS, New Mexico MPS 14028
1999 11 05.34632 04 03 40.56 +12 07 32.1 18.8   704 – Lincoln Laboratory ETS, New Mexico MPS 14028
1999 11 05.36298 04 03 39.74 +12 07 29.0 18.6   704 – Lincoln Laboratory ETS, New Mexico MPS 14028
1999 11 05.37967 04 03 38.91 +12 07 25.6 18.4   704 – Lincoln Laboratory ETS, New Mexico MPS 14028
1999 11 05.39636 04 03 38.06 +12 07 22.8 18.7   704 – Lincoln Laboratory ETS, New Mexico MPS 14028
1999 12 06.20849 03 34 51.69 +11 08 02.4 18.2   704 – Lincoln Laboratory ETS, New Mexico MPS 16634
1999 12 06.22290 03 34 50.96 +11 08 02.9 18.5   704 – Lincoln Laboratory ETS, New Mexico MPS 16634
1999 12 06.23731 03 34 50.15 +11 08 03.5 17.9   704 – Lincoln Laboratory ETS, New Mexico MPS 16634
1999 12 06.25167 03 34 49.39 +11 08 03.0 18.3   704 – Lincoln Laboratory ETS, New Mexico MPS 16634
1999 12 06.26606 03 34 48.60 +11 08 03.2 18.0   704 – Lincoln Laboratory ETS, New Mexico MPS 16634
1999 12 13.27601 03 29 26.82 +11 12 28.2 19.1 R 699 – Lowell Observatory-LONEOS MPS 16634
1999 12 13.30404 03 29 25.70 +11 12 29.9   699 – Lowell Observatory-LONEOS MPS 16634
1999 12 13.33201 03 29 24.52 +11 12 30.3   699 – Lowell Observatory-LONEOS MPS 16634
2001 04 16.41858 15 10 26.03 -09 56 27.3 20.8 V 691 – Steward Observatory, Kitt Peak-Spacewatch MPS 35554
2001 04 16.42253 15 10 25.84 -09 56 26.2 20.8 V 691 – Steward Observatory, Kitt Peak-Spacewatch MPS 35554
2001 04 16.43594 15 10 25.15 -09 56 22.4 20.7 V 691 – Steward Observatory, Kitt Peak-Spacewatch MPS 35554
2002 07 14.45538 21 27 21.60 -15 27 37.6 20.2   644 – Palomar Mountain/NEAT MPS 58774
2002 07 14.46574 21 27 21.16 -15 27 40.4 20.4   644 – Palomar Mountain/NEAT MPS 58774
2002 07 14.47609 21 27 20.75 -15 27 43.8 20.5   644 – Palomar Mountain/NEAT MPS 58774
2003 12 17.45366 07 33 48.08 +17 40 51.8 18.6 V 691 – Steward Observatory, Kitt Peak-Spacewatch MPS 93589
2003 12 17.48254 07 33 46.95 +17 40 57.6 18.7 V 691 – Steward Observatory, Kitt Peak-Spacewatch MPS 93589
2003 12 17.51170 07 33 45.83 +17 41 03.3 18.7 V 691 – Steward Observatory, Kitt Peak-Spacewatch MPS 93589
2003 12 19.40428 07 32 33.84 +17 47 47.0 18.9   704 – Lincoln Laboratory ETS, New Mexico MPS 94472
2003 12 19.41706 07 32 33.26 +17 47 49.9 18.9   704 – Lincoln Laboratory ETS, New Mexico MPS 94472
2003 12 19.43010 07 32 32.73 +17 47 52.5 18.8   704 – Lincoln Laboratory ETS, New Mexico MPS 94472
2003 12 19.44280 07 32 32.21 +17 47 55.3 18.6   704 – Lincoln Laboratory ETS, New Mexico MPS 94472
2003 12 19.45551 07 32 31.64 +17 47 58.1 18.9   704 – Lincoln Laboratory ETS, New Mexico MPS 94472
2003 12 21.33690 07 31 13.38 +17 55 07.7 18.6   704 – Lincoln Laboratory ETS, New Mexico MPS 94472
2003 12 21.34951 07 31 12.82 +17 55 11.2 19.1   704 – Lincoln Laboratory ETS, New Mexico MPS 94472
2003 12 21.36209 07 31 12.21 +17 55 13.7 19.0   704 – Lincoln Laboratory ETS, New Mexico MPS 94472
2003 12 21.37464 07 31 11.66 +17 55 17.0 19.2   704 – Lincoln Laboratory ETS, New Mexico MPS 94472
2003 12 21.38746 07 31 11.02 +17 55 20.0 19.3   704 – Lincoln Laboratory ETS, New Mexico MPS 94472
2003 12 23.32160 07 29 43.79 +18 03 09.8 18.5   704 – Lincoln Laboratory ETS, New Mexico MPS 94472
2003 12 23.33422 07 29 43.13 +18 03 13.2 18.7   704 – Lincoln Laboratory ETS, New Mexico MPS 94472
2003 12 23.34693 07 29 42.52 +18 03 16.3 18.6   704 – Lincoln Laboratory ETS, New Mexico MPS 94472
2003 12 23.35950 07 29 41.90 +18 03 19.2 18.8   704 – Lincoln Laboratory ETS, New Mexico MPS 94472
2003 12 23.37231 07 29 41.27 +18 03 22.7 18.7   704 – Lincoln Laboratory ETS, New Mexico MPS 94472
2004 01 16.22097 07 07 04.66 +20 03 09.6 19.5   644 – Palomar Mountain/NEAT MPS 96867
2004 01 16.28319 07 07 00.92 +20 03 29.9 19.5   644 – Palomar Mountain/NEAT MPS 96867
2004 01 16.35050 07 06 56.87 +20 03 51.1 18.7   644 – Palomar Mountain/NEAT MPS 96867
2004 01 24.21991 07 00 01.02 +20 44 32.8 18.7   704 – Lincoln Laboratory ETS, New Mexico MPS 97582
2004 01 24.23249 07 00 00.39 +20 44 37.2 18.8   704 – Lincoln Laboratory ETS, New Mexico MPS 97582
2004 01 24.24509 06 59 59.77 +20 44 40.4 18.8   704 – Lincoln Laboratory ETS, New Mexico MPS 97582
2004 01 24.25764 06 59 59.11 +20 44 43.9 18.7   704 – Lincoln Laboratory ETS, New Mexico MPS 97582
2004 01 24.27013 06 59 58.48 +20 44 48.3 19.0   704 – Lincoln Laboratory ETS, New Mexico MPS 97582
2004 01 30.22986 06 55 46.23 +21 13 30.5 18.7   704 – Lincoln Laboratory ETS, New Mexico MPS 97582
2004 01 30.25466 06 55 45.18 +21 13 37.2 18.5   704 – Lincoln Laboratory ETS, New Mexico MPS 97582
2004 01 30.26710 06 55 44.71 +21 13 40.8 18.6   704 – Lincoln Laboratory ETS, New Mexico MPS 97582
2004 02 26.16608 06 52 31.51 +22 48 33.5 19.5   704 – Lincoln Laboratory ETS, New Mexico MPS 100626
2004 02 26.17739 06 52 31.67 +22 48 36.0 19.8   704 – Lincoln Laboratory ETS, New Mexico MPS 100626
2004 02 26.18888 06 52 31.85 +22 48 37.5 19.8   704 – Lincoln Laboratory ETS, New Mexico MPS 100626
2004 02 26.20004 06 52 32.12 +22 48 39.1 19.7   704 – Lincoln Laboratory ETS, New Mexico MPS 100626
2004 02 26.21119 06 52 32.36 +22 48 40.4 19.6   704 – Lincoln Laboratory ETS, New Mexico MPS 100626
2004 03 18.18405 07 07 46.01 +23 17 42.8 19.6   704 – Lincoln Laboratory ETS, New Mexico MPS 101912
2004 03 18.19514 07 07 46.69 +23 17 42.4 19.6   704 – Lincoln Laboratory ETS, New Mexico MPS 101912
2004 03 18.20634 07 07 47.34 +23 17 42.9 19.8   704 – Lincoln Laboratory ETS, New Mexico MPS 101912
2004 03 18.21780 07 07 48.04 +23 17 42.9 19.6   704 – Lincoln Laboratory ETS, New Mexico MPS 101912
2005 06 01.30365 16 19 32.72 -14 56 43.7 20.5 V 691 – Steward Observatory, Kitt Peak-Spacewatch MPS 135834
2005 06 01.32098 16 19 31.63 -14 56 42.0 20.7 V 691 – Steward Observatory, Kitt Peak-Spacewatch MPS 135834
2005 06 01.33832 16 19 30.58 -14 56 41.0 20.3 V 691 – Steward Observatory, Kitt Peak-Spacewatch MPS 135834
2005 06 03.29573 16 17 34.90 -14 54 09.8 20.6 V 703 – Catalina Sky Survey MPS 135834
2005 06 03.30339 16 17 34.36 -14 54 09.2 19.6 V 703 – Catalina Sky Survey MPS 135834
2005 06 03.31108 16 17 33.93 -14 54 07.8 20.5 V 703 – Catalina Sky Survey MPS 135834
2005 06 03.31868 16 17 33.46 -14 54 06.9 20.1 V 703 – Catalina Sky Survey MPS 135834
2005 07 12.18582 15 52 16.42 -15 03 01.8 21.5 V G96 – Mt. Lemmon Survey MPS 138224
2005 07 12.19241 15 52 16.35 -15 03 02.4 20.8 V G96 – Mt. Lemmon Survey MPS 138224
2005 07 12.19898 15 52 16.28 -15 03 03.1 20.7 V G96 – Mt. Lemmon Survey MPS 138224
2005 07 12.20556 15 52 16.17 -15 03 04.2 20.6 V G96 – Mt. Lemmon Survey MPS 138224
2006 08 17.32994 22 59 46.86 -10 31 00.5 19.7 R 644 – Palomar Mountain/NEAT MPS 176622
2006 08 17.35167 22 59 45.88 -10 31 09.4 19.4 R 644 – Palomar Mountain/NEAT MPS 176622
2006 08 17.37205 22 59 44.93 -10 31 17.8 19.5 R 644 – Palomar Mountain/NEAT MPS 176622
2007 10 19.46584 09 16 50.70 +14 31 00.2 21.8 V G96 – Mt. Lemmon Survey MPS 221830
2007 10 19.47072 09 16 51.20 +14 30 58.1 21.4 V G96 – Mt. Lemmon Survey MPS 221830
